星链-2647 (STARLINK-2647 )

导读 | 星芒AI

STARLINK-2647 是 SpaceX Starlink 项目中的一颗低轨通信卫星,属于第26组发射任务中的成员。该卫星旨在为全球用户提供高速互联网服务,特别是在网络基础设施薄弱的地区。它运行在约550公里高的近地轨道,配备先进相控阵天线和激光通信系统,以提升数据传输效率和网络稳定性。作为 Starlink 卫星群的一部分,STARLINK-2647 有助于构建覆盖全球的宽带网络,支持远程教育、医疗和商业应用,推动数字公平。

基本信息
目录编号:
48658
目录名称:
STARLINK-2647
国际标识:
2021-044W
轨道中心:
EARTH
卫星名称:
星链-2647
卫星全名:
星链-2647 (STARLINK-2647 )
卫星状态:
在轨 (已飞行1667 天)
发射日期:
2021-05-26 UTC
国别 :
美国 (US)
星等 :
--
轨道信息
数据来源 国际轨道数据 AOE轨道数据
星历时间 2025-12-17T23:45:13+0800
19小时前
查看轨道信息
2025-12-13T14:00:00+0800
5天前
查看轨道信息
半长轴 6925.34km 6925.349km
偏心率 0.0001264 0.0001087
轨道倾角 53.054° 53.052°
近地点辐角 87.399° 83.165°
升交点赤经 129.879° 149.660°
平近点角 272.714° 127.710°
近地点 546.329km 546.461km
远地点 548.081km 547.967km
周期 95.592分钟 95.592分钟
每日圈数 15.064031 15.063999
详细信息
固有亮度:
5
最大亮度:
2.5
卫星平台:
Starlink V1.0
覆盖范围:
全球
运营商:
太空探索技术公司
运营商所在国:
美国
制造商(研发单位):
太空探索技术公司
制造商所在国:
美国
使用方式:
暂无
卫星简介
星链(Starlink)计划是由太空探索技术公司(SpaceX)提出的一个巨型低轨卫星互联网星座项目,计划在2019年至2024年间在太空搭建由约1.2万颗卫星组成的“星链”网络,其中1584颗将部署在地球上空550千米处的近地轨道,并从2020年开始工作。该卫星仍在工作。
2D轨道图
3D轨道图
轨道高度分析图
轨道倾角分析图
轨道综合分析图
查看轨道综合分析图